CSG-1

Last updated on Mon Sep 21 2026 00:02:46 GMT+0000 (Coordinated Universal Time)

1 44873U 19092A 26263.57880187 .00000218 00000+0 33912-4 0 9992 2 44873 97.8916 85.8259 0001436 86.7710 273.3668 14.82146510365605
UTC large
Height (km)
Speed (km/s)
/
Latitude / Longitude
Inclination (degrees)
Orbital Period (minutes)
Azimuth
Elevation
Range (km)
Doppler Factor

Next 0 passes for location: London (51.5072 / 0.1276)

No passes found over London.
CSG-1